Weather History for Niagara Falls, NY

Change the Weather History Date:

Wednesday, March 7, 2012

  Actual Average Record
Temperature  
Mean Temperature 52 °F -  
Max Temperature 63 °F 34 °F 63 °F (2012)
Min Temperature 42 °F 20 °F 3 °F (2003)
Degree Days  
Heating Degree Days 12    
Growing Degree Days 2 (Base 50)    
Moisture  
Dew Point 29 °F    
Average Humidity 38    
Maximum Humidity 45    
Minimum Humidity 32    
Precipitation  
Precipitation 0.00 in - - ()
Sea Level Pressure  
Sea Level Pressure 30.15 in    
Wind  
Wind Speed 16 mph (SW)    
Max Wind Speed 29 mph    
Max Gust Speed 45 mph    
Visibility 10 miles    
Events      
Averages and records for this station are not official NWS values.
T = Trace of Precipitation, MM = Missing Value Source: NWS Daily Summary

Daily Weather History Graph

Daily Weather History Graph

Search for Another Location

Airport:

Trip Planner

Search our weather history database for the weather conditions in past years. The results will help you decide how hot, cold, wet, or windy it might be!

Date:

Astronomy

Mar. 07, 2012 Rise Set
Actual Time 6:40 AM EST 6:13 PM EST
Civil Twilight 6:12 AM EST 6:41 PM EST
Nautical Twilight 5:39 AM EST 7:14 PM EST
Astronomical Twilight 5:06 AM EST 7:47 PM EST
Moon 5:48 PM EST (3/7) 5:50 AM EST (3/7)
Length of Visible Light 12h 28m
Length of Day
11h 32m
Waxing Gibbous, 99% of the Moon is Illuminated
Mar 7
Waxing Gibbous
Mar 8
Full
Mar 14
Last Quarter
Mar 22
New
Mar 30
First Quarter

Hourly Weather History & Observations

Time (EST) Temp. Windchill Dew Point Humidity Pressure Visibility Wind Dir Wind Speed Gust Speed Precip Events Conditions
12:53 AM 42.1 °F 37.1 °F 21.0 °F 43% 30.24 in 10.0 mi SSW 8.1 mph - N/A   Clear
1:53 AM 43.0 °F 37.7 °F 21.0 °F 42% 30.23 in 10.0 mi SSW 9.2 mph - N/A   Clear
2:53 AM 43.0 °F 37.7 °F 23.0 °F 45% 30.23 in 10.0 mi SSW 9.2 mph - N/A   Clear
3:53 AM 43.0 °F 38.2 °F 23.0 °F 45% 30.22 in 10.0 mi South 8.1 mph - N/A   Clear
4:53 AM 46.0 °F 39.9 °F 21.9 °F 39% 30.22 in 10.0 mi SSW 13.8 mph - N/A   Clear
5:53 AM 46.9 °F - 23.0 °F 39% 30.22 in 10.0 mi SW 16.1 mph - N/A   Clear
6:53 AM 46.9 °F - 23.0 °F 39% 30.23 in 10.0 mi SSW 15.0 mph - N/A   Clear
7:06 AM 48.2 °F - 23.0 °F 37% 30.20 in 10.0 mi SSW 19.6 mph - N/A   Mostly Cloudy
7:53 AM 50.0 °F - 24.1 °F 36% 30.23 in 10.0 mi SW 18.4 mph 26.5 mph N/A   Mostly Cloudy
8:53 AM 53.1 °F - 25.0 °F 34% 30.23 in 10.0 mi SW 18.4 mph 27.6 mph N/A   Mostly Cloudy
9:53 AM 55.0 °F - 27.0 °F 34% 30.22 in 10.0 mi SW 25.3 mph 34.5 mph N/A   Scattered Clouds
10:53 AM 57.0 °F - 28.0 °F 33% 30.19 in 10.0 mi SW 27.6 mph 38.0 mph N/A   Scattered Clouds
11:53 AM 59.0 °F - 28.9 °F 32% 30.18 in 10.0 mi WSW 28.8 mph 44.9 mph N/A   Mostly Cloudy
12:53 PM 60.1 °F - 32.0 °F 35% 30.16 in 10.0 mi SW 25.3 mph 38.0 mph N/A   Overcast
1:53 PM 62.1 °F - 35.1 °F 37% 30.13 in 10.0 mi SW 24.2 mph 38.0 mph N/A   Mostly Cloudy
2:53 PM 63.0 °F - 36.0 °F 37% 30.12 in 10.0 mi SW 23.0 mph 32.2 mph N/A   Mostly Cloudy
3:53 PM 63.0 °F - 36.0 °F 37% 30.09 in 10.0 mi SW 19.6 mph 34.5 mph N/A   Overcast
4:53 PM 61.0 °F - 35.1 °F 38% 30.08 in 10.0 mi SW 18.4 mph 25.3 mph N/A   Overcast
5:53 PM 59.0 °F - 33.1 °F 38% 30.07 in 10.0 mi SW 19.6 mph 25.3 mph N/A   Overcast
6:53 PM 57.0 °F - 32.0 °F 39% 30.06 in 10.0 mi SSW 15.0 mph 25.3 mph N/A   Mostly Cloudy
7:53 PM 57.9 °F - 30.9 °F 36% 30.05 in 10.0 mi SSW 16.1 mph 23.0 mph N/A   Scattered Clouds
8:53 PM 57.9 °F - 30.9 °F 36% 30.04 in 10.0 mi SSW 16.1 mph - N/A   Scattered Clouds
9:53 PM 57.9 °F - 33.1 °F 39% 30.03 in 10.0 mi SSW 21.9 mph 27.6 mph N/A   Overcast
10:53 PM 59.0 °F - 34.0 °F 39% 30.02 in 10.0 mi SW 24.2 mph 31.1 mph N/A   Overcast
11:53 PM 57.9 °F - 36.0 °F 44% 30.00 in 10.0 mi SW 21.9 mph 29.9 mph N/A   Clear